This is the latest recevied weather packets stored in our database for station/object K5MGY. If no packets are shown the sender has not sent any weather packets the latest 10 day(s).
| Time | Temp. | Humidity | Pressure | Rain* | Wind** | Luminosity | Snow |
|---|---|---|---|---|---|---|---|
| 1777655656 | 17.78° C | 56% | 1040.4 hPa | 0 mm | - | 312 W/m² | - |
| 1777655353 | 17.78° C | 55% | 1040.5 hPa | 0 mm | - | 513 W/m² | - |
| 1777653536 | 16.67° C | 65% | 1040.9 hPa | 0 mm | - | 568 W/m² | - |
| 1777653233 | 16.11° C | 68% | 1040.9 hPa | 0 mm | - | 270 W/m² | - |
| 1777652929 | 15.56° C | 67% | 1040.9 hPa | 0 mm | - | 212 W/m² | - |
| 1777652626 | 15.56° C | 67% | 1041.2 hPa | 0 mm | - | 140 W/m² | - |
| 1777652323 | 15.56° C | 66% | 1041.2 hPa | 0 mm | - | 90 W/m² | - |
| 1777652020 | 15.56° C | 66% | 1041 hPa | 0 mm | - | 118 W/m² | - |
| 1777651717 | 15.56° C | 71% | 1041.1 hPa | 0 mm | - | 142 W/m² | - |
| 1777651413 | 15° C | 71% | 1040.7 hPa | 0 mm | - | 111 W/m² | - |
| 1777651111 | 15° C | 71% | 1040.9 hPa | 0 mm | - | 81 W/m² | - |
| 1777650504 | 15° C | 71% | 1040.9 hPa | 0 mm | - | 84 W/m² | - |
| 1777650202 | 15° C | 73% | 1041 hPa | 0 mm | - | 91 W/m² | - |
| 1777649899 | 15° C | 73% | 1041.3 hPa | 0 mm | - | 77 W/m² | - |
| 1777649596 | 15° C | 76% | 1041 hPa | 0 mm | - | 84 W/m² | - |
| 1777649292 | 15° C | 76% | 1040.8 hPa | 0 mm | - | 80 W/m² | - |
| 1777648989 | 15° C | 78% | 1041.2 hPa | 0 mm | - | 69 W/m² | - |
| 1777648687 | 15° C | 78% | 1041.4 hPa | 0 mm | - | 67 W/m² | - |
| 1777648383 | 15° C | 79% | 1041.8 hPa | 0 mm | - | 28 W/m² | - |
| 1777648079 | 15° C | 80% | 1041.3 hPa | 0 mm | - | 31 W/m² | - |
| 1777647776 | 15° C | 79% | 1040.5 hPa | 0 mm | - | 56 W/m² | - |
| 1777647472 | 15° C | 80% | 1040.5 hPa | 0 mm | - | 49 W/m² | - |
| 1777646258 | 14.44° C | 86% | 1040.8 hPa | 0 mm | - | 91 W/m² | - |
| 1777645955 | 14.44° C | 86% | 1040.8 hPa | 0 mm | - | 67 W/m² | - |
| 1777645652 | 14.44° C | 86% | 1040.9 hPa | 0 mm | - | 41 W/m² | - |
* Rain latest hour (hover to see other rain measurements)
** Current wind speed in m/s (hover to see current wind gust speed)